Weather History for KHQZ - October, 2012

Change the Weather History Date:

Tuesday, October 16, 2012

  Actual Average (KDFW) Record (KDFW)
Temperature  
Mean Temperature 64 °F 68 °F  
Max Temperature 73 °F 78 °F 93 °F (1972)
Min Temperature 55 °F 57 °F 39 °F (1966)
Degree Days  
Heating Degree Days 1 2  
Month to date heating degree days 19  
Since 1 July heating degree days 25  
Cooling Degree Days 0 4  
Month to date cooling degree days 97  
Year to date cooling degree days 2674  
Growing Degree Days 14 (Base 50)    
Moisture  
Dew Point 54 °F    
Average Humidity 74    
Maximum Humidity 94    
Minimum Humidity 50    
Precipitation  
Precipitation 0.00 in 0.15 in 2.92 in (1942)
Month to date precipitation 1.94  
Year to date precipitation 28.60  
Snow  
Snow 0.00 in 0.00 in 0.00 in ()
Month to date snowfall 0.0  
Since 1 July snowfall 0.0  
Since 1 September snowfall 0.0  
Snow Depth -    
Sea Level Pressure  
Sea Level Pressure 29.85 in    
Wind  
Wind Speed 6 mph (SSE)    
Max Wind Speed 17 mph    
Max Gust Speed 23 mph    
Visibility 10 miles    
Events      
T = Trace of Precipitation, MM = Missing Value Source: NWS Daily Summary

Daily Weather History Graph

Daily Weather History Graph

Search for Another Location

Airport or City:

Trip Planner

Search our weather history database for the weather conditions in past years. The results will help you decide how hot, cold, wet, or windy it might be!

Date:

Astronomy

Oct. 16, 2012 Rise Set
Actual Time 7:31 AM CDT 6:51 PM CDT
Civil Twilight 7:06 AM CDT 7:16 PM CDT
Nautical Twilight 6:37 AM CDT 7:44 PM CDT
Astronomical Twilight 6:09 AM CDT 8:13 PM CDT
Moon 8:48 AM CDT (10/16) 7:44 PM CDT (10/16)
Length of Visible Light 12h 09m
Length of Day
11h 19m
New Moon, 2% of the Moon is Illuminated
Oct 16
New Moon
Oct 21
First Quarter
Oct 29
Full
Nov 6
Last Quarter
Nov 13
New

Hourly Weather History & Observations

Time (CDT) Temp. Dew Point Humidity Pressure Visibility Wind Dir Wind Speed Gust Speed Precip Events Conditions
12:15 AM 59.0 °F 50.0 °F 72% 30.00 in 10.0 mi Calm Calm - N/A   Clear
12:35 AM 59.0 °F 50.0 °F 72% 29.99 in 10.0 mi Calm Calm - N/A   Clear
12:55 AM 59.0 °F 51.8 °F 77% 29.98 in 10.0 mi SSE 3.5 mph - N/A   Clear
1:15 AM 59.0 °F 50.0 °F 72% 29.98 in 10.0 mi South 3.5 mph - N/A   Clear
1:35 AM 55.4 °F 50.0 °F 82% 29.97 in 10.0 mi SE 4.6 mph - N/A   Clear
1:55 AM 55.4 °F 50.0 °F 82% 29.97 in 10.0 mi Calm Calm - N/A   Clear
2:15 AM 55.4 °F 50.0 °F 82% 29.96 in 10.0 mi SSE 3.5 mph - N/A   Clear
2:35 AM 57.2 °F 50.0 °F 77% 29.96 in 10.0 mi South 4.6 mph - N/A   Clear
2:55 AM 55.4 °F 50.0 °F 82% 29.95 in 10.0 mi SSE 3.5 mph - N/A   Clear
3:15 AM 55.4 °F 50.0 °F 82% 29.95 in 10.0 mi Calm Calm - N/A   Clear
3:35 AM 55.4 °F 50.0 °F 82% 29.94 in 10.0 mi Calm Calm - N/A   Clear
3:55 AM 55.4 °F 50.0 °F 82% 29.94 in 10.0 mi South 3.5 mph - N/A   Clear
4:15 AM 55.4 °F 50.0 °F 82% 29.93 in 10.0 mi SSE 4.6 mph - N/A   Clear
4:35 AM 55.4 °F 50.0 °F 82% 29.93 in 10.0 mi SSE 5.8 mph - N/A   Clear
5:35 AM 55.4 °F 51.8 °F 88% 29.92 in 10.0 mi SSE 4.6 mph - N/A   Clear
5:55 AM 55.4 °F 51.8 °F 88% 29.92 in 10.0 mi Calm Calm - N/A   Clear
6:15 AM 55.4 °F 50.0 °F 82% 29.92 in 10.0 mi SSE 3.5 mph - N/A   Clear
6:55 AM 55.4 °F 51.8 °F 88% 29.91 in 10.0 mi SE 3.5 mph - N/A   Clear
7:15 AM 55.4 °F 51.8 °F 88% 29.91 in 10.0 mi Calm Calm - N/A   Clear
7:35 AM 55.4 °F 51.8 °F 88% 29.91 in 10.0 mi SSE 3.5 mph - N/A   Clear
7:55 AM 55.4 °F 51.8 °F 88% 29.91 in 10.0 mi SE 3.5 mph - N/A   Clear
8:15 AM 55.4 °F 53.6 °F 94% 29.91 in 10.0 mi SE 4.6 mph - N/A   Clear
8:35 AM 57.2 °F 53.6 °F 88% 29.91 in 10.0 mi SSE 3.5 mph - N/A   Clear
8:55 AM 59.0 °F 53.6 °F 82% 29.92 in 10.0 mi SSE 4.6 mph - N/A   Clear
9:15 AM 59.0 °F 53.6 °F 82% 29.92 in 10.0 mi SSE 8.1 mph - N/A   Scattered Clouds
9:35 AM 60.8 °F 53.6 °F 77% 29.92 in 10.0 mi SSE 6.9 mph - N/A   Clear
9:55 AM 60.8 °F 53.6 °F 77% 29.92 in 10.0 mi SSE 6.9 mph - N/A   Clear
10:15 AM 62.6 °F 53.6 °F 72% 29.92 in 10.0 mi SSE 6.9 mph - N/A   Scattered Clouds
10:35 AM 62.6 °F 53.6 °F 72% 29.91 in 10.0 mi SSE 10.4 mph - N/A   Scattered Clouds
10:55 AM 64.4 °F 53.6 °F 68% 29.91 in 10.0 mi SSE 8.1 mph - N/A   Mostly Cloudy
11:15 AM 64.4 °F 53.6 °F 68% 29.91 in 10.0 mi SSE 9.2 mph - N/A   Mostly Cloudy
11:35 AM 64.4 °F 53.6 °F 68% 29.91 in 10.0 mi SSE 6.9 mph - N/A   Mostly Cloudy
11:55 AM 66.2 °F 53.6 °F 64% 29.91 in 10.0 mi SSE 4.6 mph - N/A   Mostly Cloudy
12:15 PM 68.0 °F 53.6 °F 60% 29.90 in 10.0 mi South 8.1 mph - N/A   Mostly Cloudy
12:35 PM 68.0 °F 53.6 °F 60% 29.89 in 10.0 mi South 12.7 mph - N/A   Mostly Cloudy
12:55 PM 68.0 °F 53.6 °F 60% 29.86 in 10.0 mi SSE 13.8 mph - N/A   Scattered Clouds
1:15 PM 68.0 °F 53.6 °F 60% 29.85 in 10.0 mi SSE 11.5 mph - N/A   Clear
1:35 PM 69.8 °F 53.6 °F 56% 29.85 in 10.0 mi South 11.5 mph 18.4 mph N/A   Clear
1:55 PM 71.6 °F 53.6 °F 53% 29.83 in 10.0 mi SSE 13.8 mph 18.4 mph N/A   Clear
2:15 PM 71.6 °F 53.6 °F 53% 29.83 in 10.0 mi South 9.2 mph 16.1 mph N/A   Clear
2:35 PM 69.8 °F 53.6 °F 56% 29.81 in 10.0 mi SSE 11.5 mph 16.1 mph N/A   Clear
2:55 PM 69.8 °F 53.6 °F 56% 29.80 in 10.0 mi SSE 12.7 mph 18.4 mph N/A   Clear
3:15 PM 69.8 °F 53.6 °F 56% 29.79 in 10.0 mi South 12.7 mph - N/A   Clear
3:35 PM 69.8 °F 53.6 °F 56% 29.79 in 10.0 mi South 13.8 mph - N/A   Clear
3:55 PM 71.6 °F 53.6 °F 53% 29.78 in 10.0 mi South 16.1 mph 20.7 mph N/A   Clear
4:15 PM 73.4 °F 53.6 °F 50% 29.77 in 10.0 mi South 17.3 mph 21.9 mph N/A   Clear
4:35 PM 73.4 °F 53.6 °F 50% 29.76 in 10.0 mi South 17.3 mph 21.9 mph N/A   Clear
4:55 PM 73.4 °F 53.6 °F 50% 29.76 in 10.0 mi South 16.1 mph 19.6 mph N/A   Clear
5:15 PM 71.6 °F 55.4 °F 57% 29.76 in 10.0 mi South 13.8 mph 21.9 mph N/A   Clear
5:35 PM 71.6 °F 55.4 °F 57% 29.74 in 10.0 mi South 16.1 mph 23.0 mph N/A   Clear
5:55 PM 69.8 °F 55.4 °F 60% 29.73 in 10.0 mi South 15.0 mph 23.0 mph N/A   Clear
6:15 PM 69.8 °F 55.4 °F 60% 29.74 in 10.0 mi South 13.8 mph 21.9 mph N/A   Clear
6:35 PM 68.0 °F 55.4 °F 64% 29.73 in 10.0 mi South 15.0 mph 20.7 mph N/A   Clear
6:55 PM 68.0 °F 57.2 °F 68% 29.73 in 10.0 mi South 13.8 mph 17.3 mph N/A   Clear
7:15 PM 66.2 °F 59.0 °F 78% 29.73 in 10.0 mi South 16.1 mph - N/A   Clear
7:35 PM 64.4 °F 59.0 °F 83% 29.72 in 10.0 mi South 15.0 mph - N/A   Clear
7:55 PM 64.4 °F 59.0 °F 83% 29.72 in 10.0 mi South 13.8 mph 19.6 mph N/A   Clear
8:15 PM 64.4 °F 59.0 °F 83% 29.73 in 10.0 mi South 12.7 mph 18.4 mph N/A   Clear
8:35 PM 64.4 °F 59.0 °F 83% 29.72 in 10.0 mi South 13.8 mph 19.6 mph N/A   Clear
8:55 PM 64.4 °F 59.0 °F 83% 29.72 in 10.0 mi South 15.0 mph 20.7 mph N/A   Scattered Clouds
9:15 PM 62.6 °F 59.0 °F 88% 29.72 in 10.0 mi South 15.0 mph 19.6 mph N/A   Mostly Cloudy
9:35 PM 62.6 °F 59.0 °F 88% 29.72 in 10.0 mi South 13.8 mph 20.7 mph N/A   Mostly Cloudy
9:55 PM 62.6 °F 59.0 °F 88% 29.73 in 10.0 mi SSE 11.5 mph - N/A   Overcast
10:15 PM 64.4 °F 60.8 °F 88% 29.73 in 10.0 mi South 12.7 mph - N/A   Overcast
10:35 PM 64.4 °F 60.8 °F 88% 29.72 in 10.0 mi South 12.7 mph 16.1 mph N/A   Overcast
10:55 PM 64.4 °F 60.8 °F 88% 29.72 in 10.0 mi South 12.7 mph 20.7 mph N/A   Overcast
11:15 PM 64.4 °F 60.8 °F 88% 29.72 in 10.0 mi South 13.8 mph 19.6 mph N/A   Overcast
11:35 PM 64.4 °F 60.8 °F 88% 29.72 in 10.0 mi South 11.5 mph 18.4 mph N/A   Overcast
11:55 PM 64.4 °F 60.8 °F 88% 29.72 in 10.0 mi South 11.5 mph 19.6 mph N/A   Overcast